#timestamp,LO_Frequency,Hit,StdDev 
1570579215.3,286046998.9,N
1570579235.2,286047000.9,N
1570579255.0,286047001.0,N
1570579255.9,286047001.0,N
1570579275.8,286046999.8,N
1570579295.6,286047004.2,N
1570579315.4,286047001.5,N
1570579335.3,286046999.8,N
1570579355.1,286047002.3,N
1570579375.8,286047004.4,N
1570579395.7,286047002.6,N
1570579415.5,286047003.3,N
1570579435.4,286047004.2,N
1570579455.2,286047001.6,N
1570579475.0,286047002.1,N
1570579475.9,286047002.1,N
1570579495.8,286047004.3,N
1570579515.6,286047001.4,N
1570579535.5,286047001.3,N
1570579555.3,286047002.9,N
1570579575.1,286047003.2,N
1570579595.9,286047004.3,N
1570579615.7,286047001.3,N
1570579635.5,286047003.2,N
1570579655.4,286047003.1,N
1570579675.2,286047003.7,N
1570579695.1,286047005.9,N
1570579696.0,286047005.9,N
1570579715.8,286047002.9,N
1570579735.6,286047004.6,N
1570579755.5,286047005.0,N
1570579775.3,286047009.2,Y
1570579795.1,286047003.0,P
1570579815.9,286047005.2,P
1570579835.7,286047005.3,P
1570579855.6,286047005.3,Y
1570579875.4,286047000.1,P
1570579895.2,286047000.6,N
1570579915.1,286047002.7,N
1570579916.0,286047002.7,N
1570579935.8,286047001.7,N
1570579955.7,286047004.0,N
1570579975.5,286047003.9,N
1570579995.3,286047002.2,N
1570580015.2,286047002.0,N
1570580035.0,286047004.3,Y
1570580035.9,286047004.3,P
1570580055.7,286047001.0,N
1570580075.6,286047000.4,N
1570580095.4,286047000.6,N
1570580115.3,286047000.0,N
1570580135.1,286047000.0,N
1570580136.0,286047000.0,N
1570580155.8,286046999.9,N
1570580175.7,286047002.4,N
1570580195.5,286047000.3,N
1570580215.3,286047001.1,N
1570580235.2,286046999.7,N
1570580255.0,286047000.5,N
1570580255.9,286047000.5,N
1570580275.8,286047002.7,N
1570580295.6,286047000.0,N
1570580315.4,286047002.3,N
1570580335.3,286047001.6,N
1570580355.1,286047004.2,Y
1570580375.9,286047001.4,P
1570580395.7,286047002.0,P
1570580415.5,286047004.2,P
1570580435.4,286047001.6,N
1570580455.2,286047001.4,N
1570580475.0,286047002.0,N
1570580475.9,286047002.0,N
1570580495.8,286047004.0,Y
1570580515.6,286046998.5,P
1570580535.5,286047001.2,N
1570580555.3,286047000.9,N
1570580575.1,286046999.0,N
1570580595.9,286046996.6,N
1570580615.7,286046996.6,N
1570580635.6,286046996.5,N
1570580655.4,286046999.1,N
1570580675.2,286046997.0,N
1570580695.1,286046997.0,N
1570580696.0,286046997.0,N
1570580715.8,286046997.0,N
1570580735.6,286046999.4,N
1570580755.5,286046999.3,N
1570580775.3,286046999.3,N
1570580795.2,286046998.3,N
1570580815.9,286046998.6,N
1570580835.7,286046999.2,N
1570580855.6,286046999.0,N
1570580875.4,286046999.0,N
1570580895.2,286046999.4,N
1570580915.1,286046997.3,N
1570580916.0,286046997.3,N
1570580935.8,286046996.8,N
1570580955.7,286046999.6,N
1570580975.5,286046999.2,N
1570580995.3,286046996.6,N
1570581015.2,286046999.2,N
1570581035.0,286046999.4,N
1570581035.9,286046999.4,N
1570581055.8,286046998.7,N
1570581075.6,286046998.1,N
1570581095.4,286047000.2,N
1570581115.3,286047002.5,N
1570581135.1,286047001.6,N
1570581155.8,286047002.6,N
1570581175.7,286047002.8,N
1570581195.5,286047000.3,N
1570581215.4,286047000.7,N
1570581235.2,286047002.3,N
1570581255.0,286047000.3,N
1570581255.9,286047000.3,N
1570581275.8,286046998.4,N
1570581295.6,286047000.0,N
1570581315.4,286047000.3,N
1570581335.3,286047002.7,N
1570581355.1,286047002.3,N
1570581375.9,286047004.0,N
1570581395.7,286047002.4,N
1570581415.5,286047000.1,N
1570581435.4,286047000.5,N
1570581455.2,286047000.3,N
1570581475.0,286047000.3,N
1570581476.0,286047000.3,N
1570581495.8,286047000.2,N
1570581515.6,286047002.1,N
1570581535.5,286047001.9,N
1570581555.3,286047002.3,N
1570581575.1,286047000.4,N
1570581595.9,286047001.8,N
1570581615.7,286047001.7,N
1570581635.6,286047004.4,Y
1570581655.4,286047002.0,P
1570581675.2,286047002.5,P
1570581695.1,286047000.3,N
1570581696.0,286047000.3,N
1570581715.8,286047000.5,N
1570581735.6,286047001.2,N
1570581755.5,286046999.5,N
1570581775.3,286046997.1,Y
1570581795.2,286046994.9,P
1570581815.9,286046997.9,N
1570581835.7,286046995.4,N
1570581855.6,286046995.8,N
1570581875.4,286046993.4,N
1570581895.3,286046994.5,N
1570581915.1,286046996.3,N
1570581916.0,286046996.3,N
1570581935.8,286046994.1,N
1570581955.7,286046994.0,N
1570581975.5,286046994.0,N
1570581995.3,286046994.3,N
1570582015.2,286046992.2,Y
1570582035.0,286046997.7,P
1570582035.9,286046997.7,N
1570582055.8,286046994.9,P
1570582075.6,286046994.4,Y
1570582095.4,286046997.2,P
1570582115.3,286046997.7,P
1570582135.1,286046998.0,P
1570582155.9,286046995.6,Y
1570582175.7,286046999.4,P
1570582195.5,286046996.9,P
1570582215.4,286046997.1,N
1570582235.2,286046997.3,N
1570582255.0,286046995.7,Y
1570582255.9,286046995.7,P
1570582275.8,286046997.2,N
1570582295.6,286046995.2,P
1570582315.5,286046995.0,Y
1570582335.3,286047000.2,P
1570582355.1,286047000.4,N
1570582375.9,286046998.3,N
1570582395.7,286046998.2,N
1570582415.5,286047001.0,N
1570582435.4,286047000.8,N
1570582455.2,286046998.2,N
1570582475.1,286046999.2,N
1570582476.0,286046999.2,N
1570582495.8,286046999.1,N
1570582515.6,286046997.7,N
1570582535.5,286046997.3,N
1570582555.3,286046994.9,Y
1570582575.2,286046997.0,P
1570582595.9,286046997.3,N
1570582615.7,286046997.5,N
1570582635.6,286046995.6,Y
1570582655.4,286046998.4,P
1570582675.2,286046999.3,N
1570582695.1,286046999.5,N
1570582696.0,286046999.5,N
1570582715.8,286046999.6,N
1570582735.7,286046997.1,Y
1570582755.5,286046998.7,P
1570582775.3,286046998.3,P
1570582795.2,286046998.9,P
